�������l�o���
Date,Time,MP-1(��Sv/h),MP-2(��Sv/h),MP-3(��Sv/h),MP-4(��Sv/h),MP-5(��Sv/h),MP-6(��Sv/h),MP-7(��Sv/h),MP-8(��Sv/h),����,����(m/s),���J
2022/03/19,00:00,0.554,0.803,0.533,0.993,0.684,0.341,0.584,0.560,�k��,10.3,�L
2022/03/19,00:10,0.555,0.804,0.533,0.994,0.688,0.342,0.584,0.558,�k�k��,10.0,�L
2022/03/19,00:20,0.557,0.807,0.533,0.994,0.688,0.342,0.587,0.560,�k�k��,11.9,�L
2022/03/19,00:30,0.556,0.807,0.534,0.996,0.690,0.343,0.586,0.561,�k�k��,13.0,�L
2022/03/19,00:40,0.557,0.808,0.534,0.996,0.688,0.344,0.585,0.560,�k�k��,11.0,�L
2022/03/19,00:50,0.556,0.811,0.534,0.997,0.687,0.343,0.587,0.560,�k�k��,12.0,�L
2022/03/19,01:00,0.558,0.809,0.535,0.997,0.692,0.345,0.586,0.562,�k�k��,13.5,�L
2022/03/19,01:10,0.558,0.812,0.535,0.998,0.690,0.344,0.586,0.562,�k�k��,13.5,�L
2022/03/19,01:20,0.559,0.811,0.536,1.001,0.693,0.345,0.588,0.563,�k�k��,12.5,�L
2022/03/19,01:30,0.559,0.811,0.534,1.000,0.690,0.345,0.590,0.562,�k�k��,13.0,�L
2022/03/19,01:40,0.556,0.812,0.536,1.000,0.691,0.344,0.587,0.563,�k�k��,12.7,�L
2022/03/19,01:50,0.555,0.809,0.533,0.996,0.688,0.345,0.586,0.560,�k�k��,13.8,�L
2022/03/19,02:00,0.555,0.806,0.534,0.993,0.686,0.345,0.586,0.562,�k�k��,12.1,�L
2022/03/19,02:10,0.553,0.808,0.533,0.994,0.687,0.345,0.583,0.560,�k�k��,13.9,�L
2022/03/19,02:20,0.555,0.806,0.533,0.991,0.683,0.345,0.586,0.560,�k�k��,13.5,�L
2022/03/19,02:30,0.555,0.806,0.535,0.993,0.682,0.344,0.586,0.562,�k�k��,12.4,�L
2022/03/19,02:40,0.555,0.809,0.535,0.996,0.683,0.346,0.585,0.560,�k�k��,13.2,�L
2022/03/19,02:50,0.556,0.809,0.534,0.995,0.685,0.345,0.587,0.563,�k�k��,14.9,�L
2022/03/19,03:00,0.560,0.811,0.535,0.998,0.686,0.344,0.588,0.560,�k�k��,14.1,�L
2022/03/19,03:10,0.561,0.812,0.535,1.000,0.689,0.346,0.587,0.563,�k�k��,11.8,�L
2022/03/19,03:20,0.558,0.814,0.533,1.002,0.688,0.343,0.588,0.564,�k�k��,11.3,�L
2022/03/19,03:30,0.557,0.814,0.532,1.003,0.686,0.343,0.588,0.563,�k�k��,11.0,�L
2022/03/19,03:40,0.558,0.812,0.535,1.000,0.688,0.344,0.589,0.563,�k�k��,14.9,�L
2022/03/19,03:50,0.557,0.812,0.534,0.999,0.686,0.346,0.588,0.562,�k�k��,14.1,�L
2022/03/19,04:00,0.559,0.813,0.533,0.999,0.688,0.344,0.588,0.562,�k��,13.0,�L
2022/03/19,04:10,0.558,0.813,0.534,1.000,0.686,0.346,0.590,0.563,�k�k��,14.9,�L
2022/03/19,04:20,0.560,0.814,0.533,0.999,0.686,0.345,0.588,0.561,�k��,12.7,�L
2022/03/19,04:30,0.558,0.809,0.531,0.997,0.682,0.344,0.588,0.562,�k��,11.9,�L
2022/03/19,04:40,0.555,0.805,0.533,0.992,0.683,0.344,0.587,0.561,�k��,12.7,�L
2022/03/19,04:50,0.553,0.806,0.534,0.995,0.683,0.345,0.588,0.562,�k��,12.7,�L
2022/03/19,05:00,0.555,0.810,0.533,0.996,0.686,0.345,0.586,0.563,�k��,11.3,�L
2022/03/19,05:10,0.555,0.810,0.534,0.999,0.686,0.345,0.588,0.562,�k��,13.5,�L
2022/03/19,05:20,0.555,0.811,0.534,1.000,0.686,0.345,0.589,0.561,�k��,13.5,�L
2022/03/19,05:30,0.556,0.812,0.533,0.999,0.687,0.344,0.590,0.564,�k��,12.5,�L
2022/03/19,05:40,0.557,0.813,0.534,1.000,0.688,0.344,0.590,0.563,�k��,11.9,�L
2022/03/19,05:50,0.558,0.815,0.536,1.002,0.687,0.344,0.589,0.562,�k��,14.7,�L
2022/03/19,06:00,0.558,0.813,0.534,1.002,0.687,0.344,0.590,0.564,�k��,11.3,�L
2022/03/19,06:10,0.558,0.814,0.535,1.004,0.689,0.344,0.590,0.561,�k��,10.5,��
2022/03/19,06:20,0.558,0.813,0.536,1.004,0.688,0.344,0.589,0.564,�k��,10.4,��
2022/03/19,06:30,0.559,0.814,0.534,1.006,0.688,0.343,0.591,0.565,�k��,10.6,��
2022/03/19,06:40,0.560,0.817,0.534,1.006,0.691,0.343,0.590,0.564,�k��,11.3,��
2022/03/19,06:50,0.560,0.817,0.534,1.006,0.691,0.342,0.591,0.562,�k��,8.5,��
2022/03/19,07:00,0.560,0.817,0.533,1.009,0.692,0.341,0.592,0.564,�k��,11.4,��
2022/03/19,07:10,0.561,0.817,0.533,1.009,0.693,0.343,0.593,0.562,�k�k��,6.1,��
2022/03/19,07:20,0.559,0.819,0.534,1.008,0.694,0.341,0.592,0.564,�k�k��,7.4,��
2022/03/19,07:30,0.561,0.818,0.534,1.011,0.692,0.342,0.594,0.564,�k�k��,5.1,��
2022/03/19,07:40,0.561,0.820,0.533,1.010,0.694,0.343,0.593,0.564,�k��,4.9,��
2022/03/19,07:50,0.563,0.818,0.534,1.009,0.694,0.342,0.593,0.566,�k��,3.8,��
2022/03/19,08:00,0.561,0.821,0.533,1.013,0.695,0.342,0.594,0.565,���k��,7.7,��
2022/03/19,08:10,0.563,0.820,0.535,1.012,0.696,0.341,0.594,0.566,���k��,10.6,��
2022/03/19,08:20,0.563,0.822,0.535,1.017,0.698,0.342,0.593,0.565,��,8.1,��
2022/03/19,08:30,0.565,0.824,0.535,1.014,0.695,0.345,0.595,0.565,���k��,10.2,��
2022/03/19,08:40,0.564,0.824,0.536,1.014,0.696,0.342,0.596,0.565,���k��,10.5,��
2022/03/19,08:50,0.565,0.826,0.538,1.016,0.698,0.342,0.594,0.566,�k��,8.3,��
2022/03/19,09:00,0.565,0.826,0.536,1.016,0.700,0.344,0.594,0.566,���k��,10.5,��
2022/03/19,09:10,0.566,0.825,0.536,1.017,0.699,0.342,0.593,0.565,��,9.0,��
2022/03/19,09:20,0.566,0.828,0.537,1.020,0.699,0.343,0.595,0.566,��,9.4,��
2022/03/19,09:30,0.565,0.828,0.537,1.021,0.700,0.342,0.595,0.567,���k��,6.3,��
2022/03/19,09:40,0.567,0.828,0.540,1.019,0.701,0.344,0.595,0.565,�k��,4.6,��
2022/03/19,09:50,0.570,0.826,0.538,1.023,0.702,0.343,0.593,0.565,���k��,5.9,��
2022/03/19,10:00,0.568,0.826,0.539,1.022,0.703,0.343,0.594,0.565,���k��,7.5,��
2022/03/19,10:10,0.568,0.829,0.540,1.020,0.703,0.345,0.594,0.566,�k��,7.7,��
2022/03/19,10:20,0.569,0.829,0.540,1.019,0.704,0.344,0.596,0.564,�k��,4.4,��
2022/03/19,10:30,0.568,0.831,0.541,1.023,0.705,0.344,0.593,0.564,�k��,7.5,��
2022/03/19,10:40,0.568,0.830,0.539,1.024,0.704,0.343,0.595,0.565,���k��,8.9,��
2022/03/19,10:50,0.569,0.829,0.541,1.022,0.703,0.343,0.596,0.565,�k��,9.8,��
2022/03/19,11:00,0.569,0.832,0.541,1.022,0.705,0.344,0.596,0.565,���k��,6.7,��
2022/03/19,11:10,0.571,0.831,0.541,1.024,0.704,0.344,0.596,0.565,���k��,5.6,��
2022/03/19,11:20,0.569,0.832,0.542,1.027,0.705,0.342,0.596,0.565,���k��,5.7,��
2022/03/19,11:30,0.570,0.833,0.541,1.026,0.706,0.343,0.596,0.565,��,6.0,��
2022/03/19,11:40,0.571,0.833,0.541,1.024,0.705,0.344,0.597,0.564,���k��,6.5,��
2022/03/19,11:50,0.571,0.836,0.543,1.023,0.707,0.344,0.597,0.566,���k��,6.5,��
2022/03/19,12:00,0.572,0.835,0.542,1.027,0.708,0.344,0.598,0.566,��,7.1,��
2022/03/19,12:10,0.569,0.833,0.544,1.027,0.708,0.344,0.596,0.567,�k��,3.6,��
2022/03/19,12:20,0.569,0.833,0.540,1.028,0.708,0.343,0.596,0.566,�k�k��,4.9,��
2022/03/19,12:30,0.570,0.835,0.541,1.026,0.710,0.342,0.595,0.566,�k�k��,7.0,��
2022/03/19,12:40,0.568,0.835,0.542,1.026,0.710,0.345,0.596,0.565,�k,7.0,��
2022/03/19,12:50,0.570,0.835,0.544,1.026,0.708,0.344,0.597,0.565,�k,2.9,��
2022/03/19,13:00,0.571,0.832,0.543,1.029,0.710,0.342,0.595,0.566,�k��,5.8,��
2022/03/19,13:10,0.569,0.836,0.543,1.029,0.710,0.344,0.597,0.565,���k��,5.2,��
2022/03/19,13:20,0.569,0.835,0.543,1.026,0.710,0.342,0.596,0.565,���k��,5.3,��
2022/03/19,13:30,0.570,0.837,0.542,1.027,0.710,0.345,0.596,0.566,���k��,4.2,��
2022/03/19,13:40,0.569,0.837,0.545,1.029,0.710,0.345,0.598,0.566,���k��,4.0,��
2022/03/19,13:50,0.571,0.837,0.543,1.028,0.710,0.345,0.596,0.564,��,3.7,��
2022/03/19,14:00,0.572,0.834,0.542,1.026,0.713,0.344,0.598,0.566,���쓌,3.0,��
2022/03/19,14:10,0.572,0.836,0.544,1.027,0.711,0.345,0.596,0.566,�쓌,3.7,��
2022/03/19,14:20,0.573,0.837,0.544,1.027,0.710,0.344,0.596,0.567,��쓌,5.3,��
2022/03/19,14:30,0.571,0.839,0.544,1.028,0.712,0.343,0.595,0.566,��,4.5,��
2022/03/19,14:40,0.572,0.839,0.544,1.028,0.713,0.343,0.596,0.566,�쓌,1.5,��
2022/03/19,14:50,0.574,0.839,0.545,1.027,0.714,0.344,0.595,0.567,��쓌,1.4,��
2022/03/19,15:00,0.573,0.841,0.545,1.028,0.714,0.344,0.596,0.567,��쓌,2.3,��
2022/03/19,15:10,0.572,0.840,0.544,1.028,0.716,0.345,0.596,0.567,��,1.5,��
2022/03/19,15:20,0.573,0.842,0.544,1.027,0.715,0.345,0.597,0.569,�쓌,1.2,��
2022/03/19,15:30,0.573,0.841,0.544,1.027,0.715,0.347,0.598,0.569,�쓌,2.2,��
2022/03/19,15:40,0.573,0.844,0.546,1.027,0.716,0.344,0.598,0.568,���쓌,2.6,��
2022/03/19,15:50,0.573,0.844,0.546,1.030,0.715,0.344,0.596,0.569,���쓌,1.5,��
2022/03/19,16:00,0.573,0.842,0.544,1.028,0.717,0.344,0.598,0.569,���k��,4.2,��
2022/03/19,16:10,0.573,0.843,0.545,1.026,0.717,0.344,0.596,0.566,�k��,4.5,��
2022/03/19,16:20,0.572,0.845,0.544,1.029,0.715,0.344,0.597,0.567,��,2.9,��
2022/03/19,16:30,0.573,0.842,0.544,1.029,0.718,0.345,0.598,0.568,���k��,3.1,��
2022/03/19,16:40,0.572,0.841,0.543,1.029,0.716,0.344,0.597,0.569,�k��,3.8,��
2022/03/19,16:50,0.573,0.843,0.544,1.026,0.716,0.344,0.598,0.567,�k��,3.0,��
2022/03/19,17:00,0.573,0.842,0.543,1.029,0.717,0.344,0.599,0.569,�k��,3.0,��
2022/03/19,17:10,0.573,0.840,0.545,1.031,0.717,0.345,0.597,0.568,�k��,3.0,��
2022/03/19,17:20,0.572,0.843,0.544,1.028,0.717,0.346,0.600,0.566,�k�k��,3.7,�L
2022/03/19,17:30,0.572,0.843,0.545,1.029,0.718,0.345,0.598,0.569,�k��,3.3,�L
2022/03/19,17:40,0.573,0.843,0.545,1.027,0.717,0.346,0.596,0.568,�k��,2.6,�L
2022/03/19,17:50,0.572,0.843,0.546,1.031,0.719,0.345,0.598,0.568,�k��,1.9,�L
2022/03/19,18:00,0.574,0.844,0.546,1.029,0.718,0.345,0.597,0.568,�k��,1.7,�L
2022/03/19,18:10,0.572,0.841,0.546,1.030,0.719,0.344,0.598,0.567,��,1.5,�L
2022/03/19,18:20,0.572,0.841,0.544,1.030,0.718,0.345,0.600,0.568,�쓌,1.2,�L
2022/03/19,18:30,0.572,0.842,0.545,1.029,0.718,0.347,0.599,0.566,�쓌,1.4,�L
2022/03/19,18:40,0.574,0.842,0.544,1.030,0.719,0.345,0.598,0.566,���쓌,1.2,�L
2022/03/19,18:50,0.572,0.840,0.545,1.029,0.717,0.346,0.597,0.568,��쓌,0.6,�L
2022/03/19,19:00,0.574,0.839,0.545,1.031,0.717,0.347,0.597,0.566,�쓌,1.2,�L
2022/03/19,19:10,0.573,0.840,0.544,1.029,0.718,0.347,0.597,0.565,��,2.3,�L
2022/03/19,19:20,0.572,0.837,0.543,1.030,0.718,0.346,0.597,0.568,���쓌,4.1,��
2022/03/19,19:30,0.572,0.838,0.542,1.030,0.716,0.346,0.598,0.567,��,4.3,��
2022/03/19,19:40,0.570,0.838,0.544,1.029,0.715,0.346,0.597,0.565,���쓌,2.9,�L
2022/03/19,19:50,0.572,0.836,0.542,1.029,0.715,0.345,0.597,0.566,���쓌,3.6,�L
2022/03/19,20:00,0.571,0.836,0.543,1.028,0.714,0.347,0.597,0.566,���쓌,3.6,�L
2022/03/19,20:10,0.571,0.835,0.543,1.027,0.713,0.347,0.597,0.567,�쓌,3.9,�L
2022/03/19,20:20,0.567,0.833,0.543,1.029,0.713,0.346,0.596,0.563,�쓌,2.6,�L
2022/03/19,20:30,0.570,0.832,0.540,1.028,0.713,0.346,0.597,0.565,�쓌,1.5,�L
2022/03/19,20:40,0.569,0.834,0.541,1.024,0.713,0.346,0.596,0.564,���쓌,1.7,�L
2022/03/19,20:50,0.570,0.833,0.540,1.025,0.712,0.346,0.594,0.564,���쓌,1.2,�L
2022/03/19,21:00,0.567,0.832,0.541,1.024,0.711,0.347,0.594,0.563,��쓌,1.4,�L
2022/03/19,21:10,0.567,0.830,0.540,1.024,0.711,0.347,0.593,0.564,-,CALM,�L
2022/03/19,21:20,0.567,0.830,0.540,1.023,0.706,0.346,0.595,0.563,-,CALM,�L
2022/03/19,21:30,0.566,0.826,0.541,1.022,0.709,0.346,0.596,0.564,�쓌,0.6,�L
2022/03/19,21:40,0.565,0.827,0.539,1.018,0.708,0.345,0.593,0.563,�k�k��,0.6,�L
2022/03/19,21:50,0.566,0.828,0.539,1.018,0.707,0.346,0.593,0.564,-,CALM,�L
2022/03/19,22:00,0.566,0.829,0.538,1.019,0.708,0.344,0.592,0.561,���k��,0.6,�L
2022/03/19,22:10,0.565,0.827,0.539,1.020,0.709,0.345,0.594,0.562,�쐼,0.6,�L
2022/03/19,22:20,0.565,0.828,0.538,1.017,0.708,0.344,0.594,0.562,��,0.6,�L
2022/03/19,22:30,0.565,0.825,0.538,1.017,0.705,0.345,0.593,0.562,�쐼,1.2,�L
2022/03/19,22:40,0.565,0.828,0.539,1.019,0.708,0.343,0.593,0.562,��,2.2,�L
2022/03/19,22:50,0.564,0.826,0.538,1.017,0.707,0.343,0.593,0.562,��쐼,2.5,��
2022/03/19,23:00,0.562,0.827,0.535,1.018,0.706,0.342,0.592,0.564,��,3.4,��
2022/03/19,23:10,0.563,0.826,0.534,1.017,0.705,0.343,0.592,0.562,��,2.6,��
2022/03/19,23:20,0.562,0.826,0.535,1.015,0.707,0.343,0.592,0.563,��쓌,2.5,��
2022/03/19,23:30,0.563,0.824,0.535,1.018,0.707,0.342,0.593,0.563,��쓌,4.4,��
2022/03/19,23:40,0.563,0.825,0.536,1.017,0.706,0.341,0.591,0.562,��,4.5,��
2022/03/19,23:50,0.563,0.825,0.536,1.015,0.706,0.342,0.592,0.564,��,4.3,��
